15min,AgWx,beryljct,423,15MAY2020:00:00:00,47.9,12.88,45.2,45.4,44.1,48.2,41.8,64,72,54,0.572,32.8,34.0,30.4,1.863,1.6,152,5.9,3.6,-0.00014,-0.00018,58.0,57.9,12,0,0,37.2,13.53,0.01,0.00
15min,AgWx,beryljct,423,15MAY2020:00:15:00,46.9,12.88,42.1,42.4,42.3,45.4,41.0,68,75,55,0.602,32.3,33.8,30.0,0,0.9,160,0.1,2.2,-0.00020,-0.00028,57.8,57.9,12,0,0,35.7,13.53,0.00,0.00
15min,AgWx,beryljct,423,15MAY2020:00:30:00,46.0,12.86,46.4,44.9,45.2,48.3,41.9,59,67,51,0.602,31.7,32.4,31.0,3.771,1.7,152,11,3.8,-0.00013,-0.00015,57.6,57.8,13,0,0,37.7,13.53,0.00,0.00
15min,AgWx,beryljct,423,15MAY2020:00:45:00,45.8,12.86,47.0,46.8,45.9,49.7,41.6,57,71,46,0.586,31.4,33.1,29.9,3.025,2.9,48,44,4.5,-0.00002,0.00001,57.4,57.8,13,0,0,39.4,13.53,0.00,0.00
15min,AgWx,beryljct,423,15MAY2020:01:00:00,45.7,12.85,44.2,43.7,44.6,47.0,43.3,61,65,54,0.615,31.8,32.4,31.0,3.179,4.4,115,11,5.9,0.00005,0.00009,57.2,57.8,13,0,0,38.6,13.53,0.00,0.00
15min,AgWx,beryljct,423,15MAY2020:01:15:00,45.1,12.84,40.8,40.5,41.1,43.8,39.8,73,78,64,0.618,33.0,33.5,32.2,2.368,2.8,166,18,4.1,-0.00008,-0.00009,57.0,57.7,12,0,0,35.2,13.53,0.00,0.00
15min,AgWx,beryljct,423,15MAY2020:01:30:00,44.3,12.82,45.8,44.0,42.3,44.1,40.5,66,73,61,0.610,31.9,32.7,31.0,0,0.3,180,0.0,2.2,-0.00026,-0.00039,56.8,57.7,13,0,0,35.6,13.53,0.00,0.00
15min,AgWx,beryljct,423,15MAY2020:01:45:00,43.8,12.82,39.5,39.5,42.8,46.4,39.5,63,71,52,0.586,31.1,33.4,29.7,4.384,3.3,40,39,6.4,-0.00002,-0.00000,56.6,57.6,12,0,0,36.7,13.53,0.00,0.00
15min,AgWx,beryljct,423,15MAY2020:02:00:00,43.3,12.81,41.2,41.2,40.6,42.5,39.0,69,75,64,0.596,31.2,31.9,30.8,0.767,2.3,30,73,5.0,-0.00009,-0.00011,56.4,57.6,13,0,0,36.0,13.53,0.00,0.00
15min,AgWx,beryljct,423,15MAY2020:02:15:00,43.0,12.8,43.3,43.9,41.9,44.0,40.1,67,72,60,0.589,31.6,32.1,31.1,1.03,1.3,255,92,3.8,-0.00017,-0.00022,56.2,57.5,13,0,0,37.3,13.54,0.00,0.00
15min,AgWx,beryljct,423,15MAY2020:02:30:00,43.0,12.78,46.1,45.3,43.5,45.3,42.1,61,66,55,0.565,30.8,31.5,30.1,0.438,0.4,328,4.2,2.7,-0.00026,-0.00038,56.0,57.5,13,0,0,35.8,13.53,0.00,0.00
15min,AgWx,beryljct,423,15MAY2020:02:45:00,43.6,12.77,43.8,46.1,46.6,48.3,45.3,52,56,48,0.595,30.0,31.3,29.5,1.535,1.7,310,18,3.8,-0.00011,-0.00012,55.8,57.4,13,0,0,39.1,13.53,0.00,0.00
15min,AgWx,beryljct,423,15MAY2020:03:00:00,44.0,12.78,46.5,45.0,44.8,45.7,42.9,61,66,57,0.608,31.9,32.7,31.2,0.373,0.4,31,2.4,2.5,-0.00026,-0.00038,55.7,57.4,12,0,0,38.0,13.53,0.00,0.00
15min,AgWx,beryljct,423,15MAY2020:03:15:00,44.1,12.76,47.8,43.9,44.9,46.9,42.7,60,69,52,0.605,31.7,33.3,30.0,2.083,1.7,294,40,3.6,-0.00012,-0.00015,55.5,57.3,12,0,0,37.8,13.54,0.00,0.00
15min,AgWx,beryljct,423,15MAY2020:03:30:00,43.9,12.76,44.4,44.2,43.9,45.9,42.2,62,68,56,0.610,31.8,32.7,30.8,1.206,1.3,297,10,2.5,-0.00016,-0.00021,55.3,57.2,12,0,0,37.0,13.54,0.00,0.00
15min,AgWx,beryljct,423,15MAY2020:03:45:00,43.8,12.75,41.6,42.3,43.9,45.3,42.3,62,66,57,0.576,31.5,32.3,30.5,4.691,3.3,306,16,7.7,-0.00001,0.00001,55.1,57.2,12,0,0,37.2,13.53,0.00,0.00
15min,AgWx,beryljct,423,15MAY2020:04:00:00,43.9,12.74,45.4,44.6,44.1,45.9,42.2,59,63,54,0.588,30.7,31.6,29.8,3.573,4.6,343,21,8.6,0.00007,0.00012,55.0,57.1,13,0,0,38.3,13.53,0.00,0.00
15min,AgWx,beryljct,423,15MAY2020:04:15:00,44.1,12.74,44.5,44.3,44.1,45.7,42.9,60,65,55,0.573,30.9,32.0,30.0,1.074,1.9,314,15,3.8,-0.00010,-0.00012,54.8,57.1,12,0,0,37.4,13.53,0.00,0.00
15min,AgWx,beryljct,423,15MAY2020:04:30:00,43.9,12.74,46.7,44.0,44.7,47.6,42.9,58,66,49,0.608,30.9,32.2,29.3,0.965,1.9,300,14,3.4,-0.00010,-0.00011,54.7,57.0,13,0,0,37.5,13.53,0.00,0.00
15min,AgWx,beryljct,423,15MAY2020:04:45:00,44.0,12.72,46.3,46.5,45.5,47.4,43.0,56,64,50,0.577,30.8,31.8,30.0,0.658,1.9,313,14,3.9,0.00019,0.00034,54.6,56.9,12,0,0,38.6,13.53,0.00,0.00
15min,AgWx,beryljct,423,15MAY2020:05:00:00,44.1,12.71,43.4,43.4,45.4,47.7,43.0,56,63,50,0.584,30.7,31.5,29.7,2.74,2.8,322,8.2,4.3,0.00028,0.00048,54.4,56.8,13,0,0,38.8,13.53,0.00,0.00
15min,AgWx,beryljct,423,15MAY2020:05:15:00,43.9,12.72,43.6,43.3,43.1,45.0,41.6,64,69,58,0.622,31.8,32.9,30.9,2.368,3.0,306,5.1,4.4,0.00023,0.00040,54.3,56.8,13,0,0,37.3,13.53,0.00,0.00
15min,AgWx,beryljct,423,15MAY2020:05:30:00,43.7,12.72,42.4,43.8,43.7,45.0,42.9,65,68,59,0.611,32.5,33.3,31.5,1.841,2.2,306,0.0,3.0,0.00019,0.00032,54.2,56.7,13,2,0,37.3,13.53,0.00,0.00
15min,AgWx,beryljct,423,15MAY2020:05:45:00,43.7,12.71,46.2,44.7,45.6,47.4,43.5,57,64,51,0.596,31.3,32.8,30.1,1.556,1.9,321,11,3.2,0.00023,0.00038,54.0,56.7,13,8,0,39.1,13.53,0.00,0.00
15min,AgWx,beryljct,423,15MAY2020:06:00:00,43.6,12.74,47.1,45.9,45.6,46.6,44.7,56,60,52,0.559,30.8,31.8,29.8,0.855,0.8,353,12,1.6,0.00019,0.00027,53.9,56.6,13,19,0,39.5,13.53,0.00,0.00
15min,AgWx,beryljct,423,15MAY2020:06:15:00,43.7,12.76,45.0,44.1,45.5,46.8,43.2,56,66,51,0.613,30.8,32.8,29.8,2.389,1.6,324,16,3.4,0.00037,0.00050,53.8,56.5,12,39,0,41.0,13.53,0.00,0.00
15min,AgWx,beryljct,423,15MAY2020:06:30:00,44.0,12.8,45.0,45.2,45.1,45.7,44.2,58,64,54,0.587,31.1,33.0,30.0,2.938,2.9,352,5.4,3.9,0.00063,0.00085,53.7,56.4,12,74,0,43.4,13.53,0.00,0.00
15min,AgWx,beryljct,423,15MAY2020:06:45:00,44.9,12.78,44.7,44.6,43.7,45.1,42.8,68,73,58,0.688,33.6,35.4,31.2,2.302,2.3,334,8.3,3.1,0.00078,0.00095,53.6,56.4,12,141,0,52.5,13.53,0.00,0.00
15min,AgWx,beryljct,423,15MAY2020:07:00:00,45.8,12.8,47.2,47.0,45.8,47.0,44.6,69,72,65,0.734,36.2,37.5,34.7,1.535,2.1,343,2.9,2.7,0.00089,0.00105,53.5,56.3,13,158,0,55.9,13.53,0.00,0.00
15min,AgWx,beryljct,423,15MAY2020:07:15:00,47.5,12.81,48.7,48.5,47.8,48.6,46.9,61,68,53,0.613,35.1,37.3,32.1,1.052,1.8,341,5.0,2.4,0.00111,0.00130,53.4,56.2,13,195,0,65.4,13.52,0.00,0.00
15min,AgWx,beryljct,423,15MAY2020:07:30:00,49.7,12.81,49.6,49.7,49.0,49.8,48.5,53,56,50,0.630,32.7,34.3,30.8,1.863,0.9,352,1.6,2.1,0.00143,0.00160,53.3,56.2,13,266,0,74.1,13.53,0.00,0.00
15min,AgWx,beryljct,423,15MAY2020:07:45:00,51.8,12.9,51.3,51.1,50.2,51.6,49.5,54,59,51,0.713,34.4,37.7,32.2,1.315,0.9,329,14,2.1,0.00171,0.00190,53.2,56.1,13,319,0,81.6,13.52,0.00,0.00
15min,AgWx,beryljct,423,15MAY2020:08:00:00,54.2,12.99,53.3,53.2,52.0,53.2,51.1,52,56,47,0.698,34.7,36.8,33.0,1.973,1.2,331,24,2.7,0.00201,0.00225,53.2,56.1,13,362,0,87.8,13.52,0.00,0.00
15min,AgWx,beryljct,423,15MAY2020:08:15:00,56.4,13.14,54.2,54.1,53.7,54.1,53.1,50,56,44,0.704,35.3,38.6,32.1,4.954,2.4,27,37,5.9,0.00225,0.00261,53.2,56.0,13,383,0,83.5,13.52,0.00,0.00
15min,AgWx,beryljct,423,15MAY2020:08:30:00,58.4,13.48,55.4,55.2,55.1,55.7,54.1,50,55,45,0.717,36.6,39.7,34.0,3.814,4.1,72,20,7.3,0.00318,0.00374,53.2,55.9,13,557,0,87.3,13.51,0.00,0.00
15min,AgWx,beryljct,423,15MAY2020:08:45:00,60.3,13.77,56.1,56.3,56.0,56.5,55.2,50,56,45,0.743,37.7,40.9,34.8,3.946,4.6,95,16,6.7,0.00344,0.00405,53.2,55.8,13,596,0,90.2,13.51,0.00,0.00
15min,AgWx,beryljct,423,15MAY2020:09:00:00,62.0,13.99,57.6,57.7,57.2,57.9,56.3,47,58,43,0.761,37.3,42.7,34.5,8.24,4.3,56,24,8.2,0.00378,0.00441,53.2,55.8,13,644,0,91.1,13.51,0.00,0.00
15min,AgWx,beryljct,423,15MAY2020:09:15:00,63.2,14.25,58.9,59.2,58.1,59.4,57.3,45,53,38,0.796,36.7,41.7,32.1,7.475,5.6,73,16,10.2,0.00411,0.00490,53.3,55.7,13,689,0,88.8,13.51,0.00,0.00
15min,AgWx,beryljct,423,15MAY2020:09:30:00,64.3,14.24,59.4,59.4,59.2,59.6,58.6,45,51,38,0.777,37.6,41.3,33.8,6.27,7.2,62,19,10.0,0.00443,0.00536,53.4,55.7,13,731,0,86.9,13.51,0.00,0.00
15min,AgWx,beryljct,423,15MAY2020:09:45:00,65.1,14.17,60.8,60.5,60.1,61.0,59.4,44,48,39,0.840,38.3,40.6,35.2,8.15,6.2,61,25,10.3,0.00468,0.00557,53.5,55.6,13,770,0,89.6,13.50,0.00,0.00
15min,AgWx,beryljct,423,15MAY2020:10:00:00,66.0,14.24,60.3,60.7,60.7,61.5,59.9,41,51,35,0.705,37.0,43.0,32.1,4.253,5.9,59,29,9.6,0.00495,0.00588,53.7,55.6,13,808,0,90.5,13.50,0.00,0.00
15min,AgWx,beryljct,423,15MAY2020:10:15:00,67.1,14.15,61.4,61.9,61.5,62.5,60.5,40,48,34,0.805,37.2,42.1,32.2,7.76,5.0,59,38,8.9,0.00519,0.00606,53.9,55.5,13,842,0,94.4,13.50,0.00,0.00
15min,AgWx,beryljct,423,15MAY2020:10:30:00,67.9,14.22,62.2,63.0,62.1,63.0,61.2,40,48,32,0.668,37.4,42.6,32.2,6.774,6.6,39,23,10.8,0.00543,0.00647,54.1,55.5,13,874,0,90.9,13.50,0.00,0.00
15min,AgWx,beryljct,423,15MAY2020:10:45:00,68.6,14.11,63.4,63.5,63.3,64.2,62.6,36,46,30,0.826,36.0,42.3,31.1,3.793,6.0,19,21,9.9,0.00571,0.00677,54.3,55.5,13,901,0,91.6,13.49,0.00,0.00
15min,AgWx,beryljct,423,15MAY2020:11:00:00,69.6,14.14,62.9,63.1,63.5,64.3,63.0,39,52,31,0.659,37.8,46.3,32.3,4.867,4.0,90,36,7.8,0.00580,0.00665,54.6,55.5,13,929,0,99.3,13.49,0.00,0.00
15min,AgWx,beryljct,423,15MAY2020:11:15:00,70.7,14.08,64.1,65.0,64.4,65.4,63.2,35,43,29,0.646,36.1,41.5,31.3,1.074,2.4,44,67,8.7,0.00598,0.00670,55.0,55.5,13,951,0,105.1,13.49,0.00,0.00
15min,AgWx,beryljct,423,15MAY2020:11:30:00,72.0,14.05,64.9,65.6,64.8,66.4,63.8,35,48,29,0.703,36.2,45.0,31.7,0,2.1,110,63,5.9,0.00611,0.00680,55.4,55.4,13,971,0,109.0,13.49,0.00,0.00
15min,AgWx,beryljct,423,15MAY2020:11:45:00,73.2,13.63,65.4,66.7,66.1,67.3,65.1,34,42,29,0.813,36.9,42.9,32.2,4.187,3.0,8.7,31,6.9,0.00631,0.00713,55.9,55.5,13,986,0,103.9,13.49,0.00,0.00
15min,AgWx,beryljct,423,15MAY2020:12:00:00,74.1,13.62,65.7,65.8,65.8,66.9,65.1,39,46,31,0.797,39.9,45.3,34.0,3.529,3.0,84,31,6.5,0.00634,0.00713,56.3,55.5,13,999,0,102.9,13.48,0.00,0.00
15min,AgWx,beryljct,423,15MAY2020:12:15:00,74.7,13.6,66.8,66.2,66.2,67.1,65.5,37,44,30,0.883,39.0,43.7,34.1,6.138,3.4,131,35,9.6,0.00643,0.00728,56.8,55.5,13,1006,0,106.0,13.48,0.00,0.00
15min,AgWx,beryljct,423,15MAY2020:12:30:00,74.6,13.59,67.3,67.1,66.5,67.3,66.0,39,50,30,0.677,40.5,47.9,34.6,0.153,4.8,88,17,7.9,0.00648,0.00748,57.4,55.5,13,1009,0,95.1,13.49,0.00,0.00
15min,AgWx,beryljct,423,15MAY2020:12:45:00,75.0,13.7,68.2,69.3,68.1,69.6,67.0,34,48,25,0.806,38.4,47.4,30.3,4.077,3.4,8.3,64,9.5,0.00660,0.00749,57.9,55.5,13,1011,0,101.1,13.49,0.00,0.00
15min,AgWx,beryljct,423,15MAY2020:13:00:00,75.6,13.59,68.2,68.4,69.1,70.2,68.1,31,38,25,0.652,36.7,42.5,31.3,2.828,4.7,314,32,9.1,0.00672,0.00783,58.5,55.6,13,1007,0,97.5,13.49,0.00,0.00
15min,AgWx,beryljct,423,15MAY2020:13:15:00,76.3,13.68,68.0,68.3,68.6,69.2,68.0,35,46,25,0.651,39.4,47.4,32.0,2.653,3.4,55,35,8.8,0.00658,0.00747,59.1,55.6,12,1001,0,97.0,13.49,0.00,0.00
15min,AgWx,beryljct,423,15MAY2020:13:30:00,76.6,13.58,68.5,68.4,68.4,69.3,67.9,38,48,28,0.938,41.4,48.8,34.1,2.587,6.1,129,23,9.8,0.00643,0.00759,59.7,55.7,12,971,0,94.5,13.49,0.00,0.00
15min,AgWx,beryljct,423,15MAY2020:13:45:00,76.3,13.56,68.1,68.7,69.1,70.1,68.4,38,50,26,0.725,41.9,50.3,33.5,5.02,4.3,128,33,10.2,0.00585,0.00678,60.2,55.7,12,874,0,92.8,13.49,0.01,0.00
15min,AgWx,beryljct,423,15MAY2020:14:00:00,76.1,13.57,67.5,66.6,68.1,69.3,66.4,34,52,25,1.156,38.5,48.5,32.1,3.464,3.2,108,32,7.2,0.00404,0.00476,60.7,55.8,12,586,0,84.1,13.49,0.00,0.00
15min,AgWx,beryljct,423,15MAY2020:14:15:00,75.8,13.53,71.0,70.6,68.8,70.6,66.9,38,48,29,1.121,42.2,47.6,36.8,1.863,5.5,66,29,8.8,0.00571,0.00676,61.2,55.9,13,857,0,86.8,13.49,0.00,0.00
15min,AgWx,beryljct,423,15MAY2020:14:30:00,76.9,13.49,69.8,69.8,69.8,70.7,68.0,36,45,28,0.729,41.3,47.9,36.0,5.546,5.1,106,43,10.6,0.00581,0.00686,61.6,56.0,13,862,0,93.0,13.49,0.00,0.00
15min,AgWx,beryljct,423,15MAY2020:14:45:00,77.9,13.47,70.8,70.5,70.4,70.7,69.8,37,45,27,1.026,42.5,48.5,35.0,6.599,5.7,124,28,11.3,0.00662,0.00778,62.0,56.1,13,977,0,94.3,13.49,0.00,0.00
15min,AgWx,beryljct,423,15MAY2020:15:00:00,77.8,13.49,69.1,69.7,69.8,70.6,69.0,30,43,26,0.846,36.7,46.8,33.0,2.346,2.2,82,51,12.3,0.00258,0.00311,62.2,56.2,12,329,0,84.0,13.49,0.01,0.00
15min,AgWx,beryljct,423,15MAY2020:15:15:00,77.7,13.51,71.0,72.0,70.5,72.2,68.5,35,48,26,0.712,41.2,49.4,34.1,2.543,5.3,168,32,13.7,0.00428,0.00527,62.5,56.3,13,615,0,87.6,13.49,0.00,0.00
15min,AgWx,beryljct,423,15MAY2020:15:30:00,78.9,13.49,69.2,69.1,72.1,73.8,69.1,33,41,25,0.933,41.1,47.3,35.3,7.212,4.7,168,29,11.5,0.00456,0.00553,62.8,56.4,12,646,0,91.4,13.49,0.00,0.00
15min,AgWx,beryljct,423,15MAY2020:15:45:00,77.6,13.55,70.5,70.2,69.4,70.4,68.4,37,45,30,0.800,41.8,47.4,37.2,5.853,6.7,183,27,13.1,0.00323,0.00427,62.9,56.5,12,402,0,79.8,13.49,0.00,0.00
15min,AgWx,beryljct,423,15MAY2020:16:00:00,77.7,13.5,69.7,70.7,71.1,72.6,70.0,35,45,29,0.841,42.2,49.0,37.1,6.27,7.9,170,21,14.5,0.00484,0.00615,63.1,56.6,12,654,0,86.5,13.49,0.00,0.00
15min,AgWx,beryljct,423,15MAY2020:16:15:00,76.4,13.61,70.4,68.7,69.4,70.6,68.3,34,41,29,0.793,39.8,44.3,36.5,5.875,7.8,180,16,11.0,0.00263,0.00379,63.2,56.8,12,241,0,76.2,13.50,0.00,0.00
15min,AgWx,beryljct,423,15MAY2020:16:30:00,74.9,13.42,69.0,68.6,68.7,69.7,67.6,36,45,29,0.868,40.9,45.5,35.9,5.283,6.6,155,21,11.9,0.00238,0.00335,63.2,56.8,13,250,0,75.8,13.50,0.00,0.00
15min,AgWx,beryljct,423,15MAY2020:16:45:00,74.6,13.59,67.8,67.6,69.5,71.6,66.9,41,48,30,1.091,44.5,48.4,38.2,8.11,6.8,154,16,13.0,0.00345,0.00447,63.3,56.9,12,482,0,79.0,13.50,0.00,0.00
15min,AgWx,beryljct,423,15MAY2020:17:00:00,74.8,13.55,71.1,71.2,69.9,72.0,67.6,39,48,26,0.973,43.5,48.4,34.8,5.59,7.3,149,17,12.3,0.00396,0.00509,63.3,57.1,12,547,0,80.1,13.50,0.00,0.00
15min,AgWx,beryljct,423,15MAY2020:17:15:00,75.8,13.54,71.3,71.9,71.4,72.0,70.7,34,42,29,0.793,41.6,46.3,37.1,10.52,7.7,214,31,13.3,0.00402,0.00528,63.2,57.2,12,527,0,80.2,13.50,0.00,0.00
15min,AgWx,beryljct,423,15MAY2020:17:30:00,76.1,13.52,69.6,69.9,71.2,72.3,69.7,33,38,27,0.899,40.6,44.8,36.7,7.103,7.3,251,25,16.2,0.00340,0.00460,63.2,57.2,12,433,0,76.9,13.49,0.00,0.00
15min,AgWx,beryljct,423,15MAY2020:17:45:00,75.5,13.3,69.5,69.1,69.7,70.4,69.0,35,39,30,0.845,40.6,43.1,37.6,9.14,9.4,222,11,13.9,0.00304,0.00438,63.2,57.3,13,351,0,72.5,13.50,0.01,0.00
15min,AgWx,beryljct,423,15MAY2020:18:00:00,74.0,13.17,67.1,66.9,68.1,69.7,66.8,36,39,33,0.835,40.2,41.8,38.6,5.13,6.7,214,7.9,9.3,0.00141,0.00234,63.1,57.4,12,144,0,68.8,13.50,0.00,0.00
15min,AgWx,beryljct,423,15MAY2020:18:15:00,71.8,13.13,67.1,67.2,66.7,67.2,66.0,37,40,34,0.805,39.6,41.2,37.8,5.744,5.8,210,6.8,8.7,0.00085,0.00162,63.0,57.5,13,85,0,66.0,13.50,0.00,0.00
15min,AgWx,beryljct,423,15MAY2020:18:30:00,70.3,13.14,67.9,67.1,66.9,67.6,66.3,36,39,33,0.781,39.1,40.9,37.3,6.379,6.4,204,10,9.5,0.00095,0.00181,62.9,57.6,13,84,0,66.7,13.51,0.00,0.00
15min,AgWx,beryljct,423,15MAY2020:18:45:00,69.8,13.1,69.1,68.9,67.6,69.0,66.1,35,40,32,0.786,39.4,41.1,38.0,10.85,8.1,191,7.7,10.9,0.00116,0.00148,62.8,57.7,12,177,0,68.5,13.50,0.00,0.00
15min,AgWx,beryljct,423,15MAY2020:19:00:00,70.3,13.07,67.9,67.3,68.6,69.9,67.3,32,36,27,0.816,37.9,40.1,34.7,8.77,9.7,180,8.0,13.9,0.00124,0.00156,62.7,57.8,13,143,0,69.4,13.50,0.00,0.00
15min,AgWx,beryljct,423,15MAY2020:19:15:00,69.9,13.05,66.2,66.3,66.8,67.7,65.9,36,39,33,0.786,38.9,40.6,37.3,8.31,8.4,186,7.8,11.4,0.00093,0.00120,62.6,57.9,13,67,0,65.4,13.51,0.01,0.00
15min,AgWx,beryljct,423,15MAY2020:19:30:00,68.4,13.05,63.9,63.7,64.6,66.2,63.5,38,41,35,0.800,38.7,39.6,37.8,5.7,6.4,193,5.1,9.4,0.00062,0.00084,62.4,57.9,13,12,0,61.1,13.50,0.00,0.00
15min,AgWx,beryljct,423,15MAY2020:19:45:00,66.4,13.03,62.5,62.0,62.9,63.7,62.0,40,42,38,0.780,38.1,39.2,36.9,4.779,5.8,199,5.1,7.2,0.00052,0.00072,62.3,58.0,13,4,0,58.6,13.51,0.00,0.00
15min,AgWx,beryljct,423,15MAY2020:20:00:00,64.6,13.02,61.0,61.2,61.5,62.0,61.0,41,43,40,0.766,37.8,38.5,36.9,5.196,4.9,206,2.9,6.3,0.00042,0.00059,62.2,58.0,13,1,0,56.8,13.51,0.00,0.00
15min,AgWx,beryljct,423,15MAY2020:20:15:00,63.2,13.01,60.4,60.6,60.6,61.1,60.3,42,43,41,0.760,37.7,38.0,37.2,5.612,5.6,204,2.9,6.5,0.00045,0.00062,62.0,58.1,13,0,0,55.9,13.51,0.01,0.00
15min,AgWx,beryljct,423,15MAY2020:20:30:00,62.0,12.99,59.6,60.0,60.2,60.6,59.9,43,44,41,0.760,37.4,38.0,36.8,5.437,5.6,207,5.3,6.9,0.00044,0.00060,61.8,58.2,13,0,0,55.4,13.51,0.00,0.00
15min,AgWx,beryljct,423,15MAY2020:20:45:00,61.2,12.99,60.1,59.8,59.8,60.1,59.3,43,45,42,0.752,37.5,37.9,36.7,5.612,5.6,216,4.4,6.4,0.00043,0.00059,61.6,58.2,13,0,0,54.9,13.51,0.00,0.00
15min,AgWx,beryljct,423,15MAY2020:21:00:00,60.6,12.99,60.5,60.7,60.3,60.8,59.6,42,44,40,0.737,36.9,37.6,36.4,6.62,6.5,214,4.7,8.1,0.00051,0.00068,61.5,58.2,13,0,0,55.5,13.51,0.00,0.00
15min,AgWx,beryljct,423,15MAY2020:21:15:00,60.5,12.97,62.1,61.3,60.8,61.5,60.0,40,42,38,0.722,36.5,37.1,35.8,7.41,6.9,221,7.9,9.9,0.00056,0.00074,61.3,58.3,13,0,0,56.1,13.51,0.00,0.00
15min,AgWx,beryljct,423,15MAY2020:21:30:00,60.7,12.98,62.1,62.0,61.8,62.3,61.3,38,39,37,0.709,35.9,36.5,35.4,8.35,8.2,224,6.6,10.8,0.00067,0.00087,61.1,58.3,13,0,0,57.4,13.51,0.00,0.00
15min,AgWx,beryljct,423,15MAY2020:21:45:00,61.1,12.97,62.9,62.7,62.3,63.1,61.8,37,38,35,0.676,35.5,36.2,34.5,11.05,9.0,226,6.4,13.1,0.00073,0.00094,60.9,58.3,13,0,0,58.1,13.51,0.00,0.00
15min,AgWx,beryljct,423,15MAY2020:22:00:00,61.4,12.97,62.5,62.7,62.2,62.9,61.9,37,38,34,0.696,35.4,36.0,34.3,8.88,9.2,225,7.8,12.3,0.00074,0.00095,60.7,58.4,12,0,0,58.1,13.52,0.00,0.00
15min,AgWx,beryljct,423,15MAY2020:22:15:00,61.8,12.95,63.1,63.3,63.1,63.6,62.6,35,36,33,0.673,34.7,35.4,33.7,10.81,10.7,226,7.9,14.5,0.00086,0.00107,60.5,58.4,13,0,0,59.3,13.51,0.00,0.00
15min,AgWx,beryljct,423,15MAY2020:22:30:00,62.1,12.94,62.2,62.0,62.5,63.3,61.9,36,37,34,0.683,35.0,35.8,34.2,9.23,9.6,225,8.3,12.9,0.00078,0.00099,60.3,58.4,13,0,0,58.5,13.51,0.00,0.00
15min,AgWx,bigpiney,439,15MAY2020:00:00:00,36.2,12.64,29.7,29.4,30.5,31.8,29.4,93,94,92,0.513,28.8,30.3,27.7,5.502,3.7,198,12,6.3,-0.00002,-0.00002,44.5,38.1,55,0,1,0.0,6.59,0.00,0.00
15min,AgWx,bigpiney,439,15MAY2020:00:15:00,35.7,12.64,31.7,31.4,30.5,31.4,29.4,93,94,92,0.553,28.8,29.6,27.7,3.244,5.7,231,12,8.1,-0.00000,-0.00000,44.4,38.0,55,0,1,0.0,6.59,0.00,0.00
15min,AgWx,bigpiney,439,15MAY2020:00:30:00,35.4,12.63,31.8,31.5,32.0,32.5,31.4,92,93,90,0.542,29.9,30.5,29.0,4.428,4.3,240,15,5.8,-0.00001,-0.00000,44.3,38.1,55,0,1,0.0,6.59,0.00,0.00
15min,AgWx,bigpiney,439,15MAY2020:00:45:00,35.2,12.62,31.2,30.7,30.3,31.6,29.5,92,93,87,0.538,28.1,29.2,26.7,3.376,4.0,226,22,5.9,-0.00001,-0.00001,44.2,38.1,55,0,1,0.0,6.59,0.00,0.00
15min,AgWx,bigpiney,439,15MAY2020:01:00:00,34.9,12.61,30.9,30.5,31.0,31.9,30.4,92,93,90,0.517,29.0,30.1,27.9,7.322,4.4,239,7.9,7.3,-0.00001,-0.00001,44.0,38.1,55,0,1,0.0,6.59,0.00,0.00
15min,AgWx,bigpiney,439,15MAY2020:01:15:00,34.7,12.6,32.8,32.2,31.5,32.2,30.5,91,93,90,0.561,29.3,29.9,28.0,4.428,5.1,255,9.7,7.3,0.00000,0.00001,43.9,38.2,55,0,1,0.0,6.59,0.00,0.00
15min,AgWx,bigpiney,439,15MAY2020:01:30:00,34.7,12.59,32.0,31.5,32.0,32.4,31.5,91,91,90,0.545,29.5,30.1,28.9,1.381,3.7,252,16,5.1,-0.00001,-0.00000,43.8,38.1,55,0,1,0.0,6.59,0.00,0.00
15min,AgWx,bigpiney,439,15MAY2020:01:45:00,34.6,12.59,30.4,30.5,31.3,32.0,30.5,91,92,90,0.524,28.9,29.6,28.2,2.105,1.6,314,81,5.3,-0.00004,-0.00005,43.6,38.1,55,0,1,0.0,6.59,0.00,0.00
15min,AgWx,bigpiney,439,15MAY2020:02:00:00,34.3,12.58,29.2,29.4,30.4,31.2,29.4,91,92,90,0.503,28.2,29.2,27.2,3.223,1.9,197,19,6.5,-0.00003,-0.00004,43.5,38.2,55,0,1,0.0,6.59,0.00,0.00
15min,AgWx,bigpiney,439,15MAY2020:02:15:00,33.8,12.57,29.0,28.8,28.7,29.3,28.4,93,94,91,0.501,26.8,27.2,26.4,1.754,0.8,268,43,2.8,-0.00005,-0.00007,43.3,38.2,55,0,1,0.0,6.59,0.00,0.00
15min,AgWx,bigpiney,439,15MAY2020:02:30:00,33.3,12.56,29.0,28.9,28.8,29.0,28.5,93,93,92,0.500,27.0,27.2,26.6,0.066,1.2,321,39,4.9,-0.00004,-0.00006,43.2,38.2,55,0,1,0.0,6.59,0.00,0.00
15min,AgWx,bigpiney,439,15MAY2020:02:45:00,33.0,12.55,28.9,28.6,28.7,29.1,28.5,93,94,93,0.497,27.0,27.5,26.8,2.938,1.7,13,58,3.6,-0.00004,-0.00005,43.1,38.1,55,0,1,0.0,6.59,0.00,0.00
15min,AgWx,bigpiney,439,15MAY2020:03:00:00,32.7,12.53,29.0,28.7,28.7,29.3,28.1,93,94,92,0.492,26.9,27.7,26.3,1.644,2.8,180,29,4.6,-0.00002,-0.00003,42.9,38.2,55,0,1,0.0,6.59,0.00,0.00
15min,AgWx,bigpiney,439,15MAY2020:03:15:00,32.5,12.52,26.6,27.2,28.5,28.8,27.2,93,93,91,0.455,26.7,27.1,24.8,2.126,1.7,209,18,3.2,-0.00004,-0.00005,42.8,38.2,55,0,1,0.0,6.59,0.00,0.00
15min,AgWx,bigpiney,439,15MAY2020:03:30:00,32.4,12.51,28.0,27.4,26.4,27.4,25.5,93,94,90,0.475,24.6,25.9,23.1,3.858,3.8,216,16,4.8,-0.00001,-0.00001,42.6,38.2,55,0,0,0.0,6.59,0.00,0.00
15min,AgWx,bigpiney,439,15MAY2020:03:45:00,32.2,12.49,29.9,29.4,28.4,29.4,27.4,94,94,93,0.516,26.8,28.0,25.9,2.477,3.7,247,14,5.1,-0.00002,-0.00002,42.5,38.2,55,0,0,0.0,6.59,0.00,0.00
15min,AgWx,bigpiney,439,15MAY2020:04:00:00,32.3,12.48,31.0,30.6,30.0,30.6,29.4,93,94,92,0.534,28.3,28.8,27.7,4.209,3.4,230,12,5.2,-0.00002,-0.00002,42.3,38.2,55,0,0,0.0,6.59,0.00,0.00
15min,AgWx,bigpiney,439,15MAY2020:04:15:00,32.6,12.47,29.0,29.0,30.7,31.7,29.0,92,93,89,0.496,28.6,29.5,26.9,4.362,3.6,285,68,6.4,-0.00001,-0.00001,42.2,38.1,55,0,0,0.0,6.59,0.00,0.00
15min,AgWx,bigpiney,439,15MAY2020:04:30:00,32.6,12.46,29.1,28.4,28.6,29.0,28.3,93,94,92,0.494,26.9,27.1,26.6,2.609,2.1,38,21,4.5,-0.00003,-0.00004,42.0,38.2,55,0,0,0.0,6.59,0.00,0.00
15min,AgWx,bigpiney,439,15MAY2020:04:45:00,32.4,12.44,29.3,29.4,29.2,29.8,28.4,93,94,92,0.509,27.6,28.0,26.9,1.315,1.8,45,58,2.8,-0.00004,-0.00005,41.9,38.2,55,0,0,0.0,6.59,0.00,0.00
15min,AgWx,bigpiney,439,15MAY2020:05:00:00,32.1,12.44,27.0,26.0,27.7,29.3,25.9,92,94,91,0.446,25.8,27.4,24.1,0.921,1.6,140,42,3.6,-0.00003,-0.00004,41.8,38.2,55,4,0,0.0,6.59,0.00,0.00
15min,AgWx,bigpiney,439,15MAY2020:05:15:00,31.6,12.45,28.3,27.7,27.0,27.7,26.1,95,95,94,0.488,25.8,26.5,24.5,2.411,1.6,236,33,2.6,-0.00022,-0.00023,41.6,38.1,55,11,0,0.0,6.59,0.00,0.00
15min,AgWx,bigpiney,439,15MAY2020:05:30:00,31.2,12.47,28.3,27.9,27.8,28.0,27.7,95,96,95,0.492,26.5,26.8,26.3,2.477,2.0,258,13,2.9,-0.00014,-0.00014,41.5,38.2,55,25,0,0.0,6.59,0.00,0.00
15min,AgWx,bigpiney,439,15MAY2020:05:45:00,31.2,12.5,30.0,29.4,28.7,29.4,27.9,95,96,95,0.523,27.5,28.2,26.7,4.384,3.8,275,12,5.5,-0.00006,-0.00004,41.4,38.1,55,57,0,0.0,6.59,0.00,0.00
15min,AgWx,bigpiney,439,15MAY2020:06:00:00,31.5,12.57,29.8,29.7,30.0,30.5,29.4,95,95,93,0.515,28.6,29.1,27.8,3.069,3.0,234,27,4.5,0.00010,0.00012,41.3,38.2,55,69,0,0.0,6.59,0.00,0.00
15min,AgWx,bigpiney,439,15MAY2020:06:15:00,32.1,12.59,30.9,30.4,29.6,30.4,29.0,94,95,92,0.540,28.1,29.0,27.1,3.99,3.5,217,11,5.1,0.00023,0.00026,41.1,38.1,55,132,0,0.0,6.59,0.00,0.00
15min,AgWx,bigpiney,439,15MAY2020:06:30:00,32.8,12.71,33.8,33.1,31.8,33.1,30.5,94,95,92,0.590,30.2,31.1,29.0,1.644,2.6,234,9.6,4.4,0.00041,0.00045,41.0,38.2,55,174,1,0.0,6.59,0.00,0.00
15min,AgWx,bigpiney,439,15MAY2020:06:45:00,34.1,12.84,36.7,36.0,34.7,36.1,33.2,91,93,87,0.623,32.4,33.8,31.3,4.012,2.0,252,16,4.0,0.00065,0.00071,40.9,38.1,55,224,1,0.0,6.59,0.00,0.00
15min,AgWx,bigpiney,439,15MAY2020:07:00:00,35.9,13.14,39.2,38.8,37.4,38.8,36.0,83,87,77,0.634,32.8,34.2,31.8,3.42,3.3,257,17,4.9,0.00098,0.00111,40.7,38.1,55,300,1,0.0,6.59,0.00,0.00
15min,AgWx,bigpiney,439,15MAY2020:07:15:00,37.8,13.39,40.7,40.4,39.6,40.4,38.8,74,79,68,0.598,32.1,33.4,30.4,6.094,5.0,258,10,7.4,0.00110,0.00132,40.6,38.1,55,278,1,0.0,6.59,0.00,0.00
15min,AgWx,bigpiney,439,15MAY2020:07:30:00,39.4,13.55,42.2,42.1,41.3,42.1,40.4,70,76,66,0.599,32.2,33.9,30.6,5.678,4.0,267,13,7.5,0.00125,0.00149,40.5,38.1,55,289,1,0.0,6.59,0.00,0.00
15min,AgWx,bigpiney,439,15MAY2020:07:45:00,41.0,13.78,42.7,42.7,42.5,42.8,42.1,58,65,53,0.490,28.8,31.3,26.6,1.622,4.0,282,27,7.4,0.00158,0.00190,40.4,38.0,55,340,1,0.0,6.59,0.00,0.00
15min,AgWx,bigpiney,439,15MAY2020:08:00:00,42.7,14.65,44.9,43.8,43.3,43.8,42.7,54,59,49,0.511,27.6,29.7,25.2,4.713,4.3,267,22,9.7,0.00204,0.00243,40.3,38.1,55,446,1,0.0,6.59,0.00,0.00
15min,AgWx,bigpiney,439,15MAY2020:08:15:00,44.6,14.65,43.8,44.0,43.8,44.2,43.4,51,54,48,0.478,26.7,28.5,24.9,6.379,6.6,249,24,10.4,0.00243,0.00298,40.2,38.0,55,527,0,0.0,6.59,0.00,0.00
15min,AgWx,bigpiney,439,15MAY2020:08:30:00,46.2,14.51,44.4,44.0,44.2,44.7,43.8,51,58,47,0.459,27.2,30.5,25.0,4.099,6.3,230,20,9.6,0.00248,0.00302,40.1,38.0,55,525,0,0.0,6.59,0.00,0.00
15min,AgWx,bigpiney,439,15MAY2020:08:45:00,47.5,14.6,44.3,44.5,44.5,45.2,43.9,49,54,45,0.505,26.7,29.4,24.0,5.327,5.5,235,25,10.1,0.00258,0.00310,40.1,38.0,55,528,0,0.0,6.59,0.00,0.00
15min,AgWx,bigpiney,439,15MAY2020:09:00:00,48.5,14.49,44.8,44.8,44.5,45.0,44.2,49,54,45,0.505,26.6,29.1,24.3,6.182,5.2,205,28,10.9,0.00265,0.00317,40.0,38.0,55,541,0,0.0,6.59,0.00,0.00